This demonstration page uses our WeatherBlox Daily Observations layout. Learn more.

Left ArrowRight Arrow

39.01783, -85.05884

Hourly Observations for October 24, 2018

Temp ( °F °C ) Dew Point ( °F °C ) Humidity (%) Winds ( mph kmh ) Pressure ( in mb ) Visibility ( mi km ) Precip ( " mm )
12:52 am 00:52 Clear 44 6.7 35 1.7 71 71 N 9 15 30.29 1026 10 16 N/A
1:52 am 01:52 Clear 42 5.6 35 1.7 76 76 N 8 13 30.29 1026 10 16 N/A
2:52 am 02:52 Clear 41 5 35 1.7 79 79 N 7 11 30.30 1026 10 16 N/A
3:52 am 03:52 Clear 40 4.4 35 1.7 83 83 N 6 9 30.31 1026 10 16 N/A
4:52 am 04:52 Clear 38 3.3 34 1.1 86 86 N 8 13 30.31 1026 10 16 N/A
5:52 am 05:52 Clear 38 3.3 34 1.1 86 86 N 6 9 30.32 1027 10 16 N/A
6:52 am 06:52 Clear 39 3.9 35 1.7 86 86 N 5 7 30.34 1027 10 16 N/A
7:52 am 07:52 Clear 36 2.2 33 0.6 89 89 N 5 7 30.34 1027 10 16 N/A
8:52 am 08:52 Sunny 40 4.4 35 1.7 83 83 N 6 9 30.37 1028 10 16 N/A
9:52 am 09:52 Sunny 43 6.1 35 1.7 74 74 NE 9 15 30.37 1029 10 16 N/A
10:52 am 10:52 Mostly Sunny 46 7.8 36 2.2 68 68 NE 9 15 30.39 1029 10 16 N/A
11:52 am 11:52 Mostly Sunny 50 10 36 2.2 59 59 NE 6 9 30.39 1029 10 16 N/A
12:52 pm 12:52 Partly Cloudy 52 11.1 35 1.7 53 53 ENE 6 9 30.38 1029 10 16 N/A
1:52 pm 13:52 Mostly Sunny 54 12.2 34 1.1 47 47 N 7 11 30.35 1028 10 16 N/A
2:52 pm 14:52 Mostly Sunny 55 12.8 32 undefined 42 42 NE 7 11 30.34 1027 10 16 N/A
3:52 pm 15:52 Partly Cloudy 56 13.3 33 0.6 42 42 ENE 7 11 30.31 1027 10 16 N/A
4:52 pm 16:52 Partly Cloudy 55 12.8 30 -1.1 38 38 NE 8 13 30.30 1026 10 16 N/A
5:52 pm 17:52 Mostly Cloudy 54 12.2 30 -1.1 40 40 NNE 10 17 30.29 1026 10 16 N/A
6:52 pm 18:52 Mostly Cloudy 50 10 30 -1.1 46 46 N 6 9 30.29 1026 10 16 N/A
7:52 pm 19:52 Mostly Cloudy 47 8.3 31 -0.6 54 54 NNE 7 11 30.29 1026 10 16 N/A
8:52 pm 20:52 Mostly Clear 46 7.8 31 -0.6 56 56 NNE 6 9 30.30 1026 10 16 N/A
9:52 pm 21:52 Clear 45 7.2 31 -0.6 58 58 NE 7 11 30.29 1026 10 16 N/A
10:52 pm 22:52 Partly Cloudy 42 5.6 31 -0.6 65 65 NE 5 7 30.30 1026 10 16 N/A
11:52 pm 23:52 Mostly Cloudy 45 7.2 32 undefined 61 61 ENE 9 15 30.29 1026 10 16 N/A

Powered by AerisWeather